When you browse on this site, cookies collect data to enhance your experience and personalize the content and advertising you see.
Visit our Privacy Policy to learn more. By continuing to use the site, you agree to this use of cookies and data.
  • In Latvia
  • List of Countries
  • For 7 days
  • Water Temperature
  • Satellite Maps
  • Weather Map
  • Weather Widgets
  • user-avatar
    Login

    Hourly Weather Innsbruck

    Today, 26 May, Sunday

    Time Temperature Precipitation Wind Pressure Humidity
    00:00 +2°C° 0.5 mm 0 mps 595 mmHg 94%
    01:00 +1°C° 0 mm 0 mps 595 mmHg 93%
    02:00 +1°C° 0.2 mm 0 mps 594 mmHg 93%
    03:00 +1°C° 0.2 mm 0 mps 594 mmHg 93%
    04:00 +1°C° 0.2 mm 0 mps 594 mmHg 93%
    05:00 +2°C° 0.1 mm 0 mps 595 mmHg 92%
    06:00 +3°C° 0.1 mm 0 mps 595 mmHg 91%
    07:00 +4°C° 0 mm 0 mps 596 mmHg 90%
    08:00 +6°C° 0 mm 1 mps 596 mmHg 85%
    09:00 +7°C° 0 mm 1 mps 597 mmHg 80%
    10:00 +9°C° 0 mm 1 mps 597 mmHg 75%
    11:00 +9°C° 0.1 mm 1 mps 597 mmHg 74%
    12:00 +10°C° 0.1 mm 1 mps 597 mmHg 73%
    13:00 +11°C° 0 mm 1 mps 598 mmHg 72%
    14:00 +10°C° 0.1 mm 1 mps 597 mmHg 72%
    15:00 +10°C° 0.1 mm 1 mps 597 mmHg 72%
    16:00 +10°C° 0.1 mm 1 mps 597 mmHg 72%
    17:00 +9°C° 0.2 mm 1 mps 596 mmHg 78%
    18:00 +7°C° 0.2 mm 0 mps 596 mmHg 84%
    19:00 +6°C° 0.2 mm 0 mps 595 mmHg 90%
    20:00 +5°C° 0.1 mm 0 mps 595 mmHg 91%
    21:00 +4°C° 0.1 mm 0 mps 595 mmHg 93%
    22:00 +3°C° 0.1 mm 0 mps 594 mmHg 95%
    23:00 +3°C° 0 mm 0 mps 594 mmHg 94%

    Tomorrow, 27 May, Monday

    Time Temperature Precipitation Wind Pressure Humidity
    00:00 +2°C° 0 mm 0 mps 594 mmHg 94%
    01:00 +2°C° 0 mm 0 mps 593 mmHg 94%
    02:00 +2°C° 0 mm 0 mps 593 mmHg 94%
    03:00 +3°C° 0 mm 0 mps 593 mmHg 94%
    04:00 +3°C° 0 mm 0 mps 593 mmHg 94%
    05:00 +4°C° 0 mm 0 mps 593 mmHg 92%
    06:00 +5°C° 0 mm 0 mps 593 mmHg 90%
    07:00 +6°C° 0 mm 0 mps 594 mmHg 88%
    08:00 +7°C° 0.2 mm 1 mps 594 mmHg 86%
    09:00 +8°C° 0.2 mm 1 mps 594 mmHg 85%
    10:00 +8°C° 0.2 mm 1 mps 594 mmHg 84%
    11:00 +9°C° 0.3 mm 1 mps 594 mmHg 83%
    12:00 +9°C° 0.3 mm 1 mps 593 mmHg 82%
    13:00 +9°C° 0.3 mm 1 mps 593 mmHg 81%
    14:00 +9°C° 0.4 mm 1 mps 593 mmHg 84%
    15:00 +9°C° 0.4 mm 1 mps 593 mmHg 86%
    16:00 +7°C° 0.4 mm 2 mps 592 mmHg 89%
    17:00 +8°C° 1.3 mm 1 mps 592 mmHg 92%
    18:00 +7°C° 1.3 mm 1 mps 591 mmHg 95%
    19:00 +6°C° 1.3 mm 1 mps 591 mmHg 98%
    20:00 +6°C° 2.6 mm 1 mps 591 mmHg 98%
    21:00 +6°C° 2.6 mm 1 mps 591 mmHg 98%
    22:00 +5°C° 2.6 mm 1 mps 590 mmHg 99%
    23:00 +5°C° 2.6 mm 1 mps 590 mmHg 99%

    Day after tomorrow, 28 May, Tuesday

    Time Temperature Precipitation Wind Pressure Humidity
    00:00 +5°C° 2.6 mm 1 mps 590 mmHg 98%
    01:00 +4°C° 2.6 mm 0 mps 590 mmHg 98%
    02:00 +4°C° 3 mm 1 mps 589 mmHg 98%
    03:00 +4°C° 3 mm 1 mps 589 mmHg 98%
    04:00 +4°C° 3 mm 1 mps 589 mmHg 99%
    05:00 +4°C° 1.3 mm 1 mps 589 mmHg 98%
    06:00 +4°C° 1.3 mm 1 mps 589 mmHg 98%
    07:00 +4°C° 1.3 mm 1 mps 589 mmHg 98%
    08:00 +4°C° 1 mm 1 mps 589 mmHg 98%
    09:00 +3°C° 1 mm 2 mps 589 mmHg 98%
    10:00 +3°C° 1 mm 2 mps 589 mmHg 98%
    11:00 +3°C° 1.2 mm 2 mps 589 mmHg 97%
    12:00 +3°C° 1.2 mm 2 mps 589 mmHg 97%
    13:00 +2°C° 1.2 mm 2 mps 589 mmHg 97%
    14:00 +2°C° 1 mm 2 mps 589 mmHg 97%
    15:00 +2°C° 1 mm 2 mps 589 mmHg 97%
    16:00 +2°C° 1 mm 2 mps 590 mmHg 97%
    17:00 +2°C° 1.1 mm 2 mps 590 mmHg 97%
    18:00 +1°C° 1.1 mm 2 mps 590 mmHg 97%
    19:00 +1°C° 1.1 mm 2 mps 590 mmHg 97%
    20:00 -1°C° 0.5 mm 2 mps 590 mmHg 96%
    21:00 -1°C° 0.5 mm 2 mps 591 mmHg 96%
    22:00 -1°C° 0.5 mm 2 mps 591 mmHg 95%
    23:00 -2°C° 0.4 mm 2 mps 591 mmHg 95%

    29 May, Wednesday

    Time Temperature Precipitation Wind Pressure Humidity
    00:00 -2°C° 0.4 mm 2 mps 591 mmHg 95%
    01:00 -2°C° 0.4 mm 2 mps 591 mmHg 95%
    02:00 -2°C° 0.6 mm 2 mps 591 mmHg 95%
    03:00 -2°C° 0.6 mm 2 mps 591 mmHg 96%
    04:00 -2°C° 0.6 mm 2 mps 591 mmHg 96%
    05:00 -2°C° 0.6 mm 2 mps 592 mmHg 96%
    06:00 -2°C° 0.6 mm 2 mps 592 mmHg 95%
    07:00 -1°C° 0.6 mm 2 mps 592 mmHg 95%
    08:00 -1°C° 0.4 mm 2 mps 593 mmHg 93%
    09:00 +1°C° 0.4 mm 2 mps 593 mmHg 91%
    10:00 +2°C° 0.4 mm 2 mps 594 mmHg 89%
    11:00 +2°C° 0.2 mm 2 mps 594 mmHg 85%
    12:00 +3°C° 0.2 mm 2 mps 595 mmHg 82%
    13:00 +4°C° 0.2 mm 2 mps 595 mmHg 78%
    14:00 +4°C° 0.2 mm 2 mps 595 mmHg 78%
    15:00 +4°C° 0.2 mm 2 mps 595 mmHg 79%
    16:00 +4°C° 0.2 mm 2 mps 595 mmHg 79%
    17:00 +4°C° 0.1 mm 2 mps 595 mmHg 82%
    18:00 +3°C° 0.1 mm 2 mps 595 mmHg 86%
    19:00 +2°C° 0.1 mm 2 mps 595 mmHg 89%
    20:00 +1°C° 0 mm 2 mps 595 mmHg 91%
    21:00 +1°C° 0 mm 2 mps 595 mmHg 93%
    22:00 -1°C° 0 mm 2 mps 596 mmHg 95%
    23:00 -2°C° 0 mm 2 mps 596 mmHg 93%

    30 May, Thursday

    Time Temperature Precipitation Wind Pressure Humidity
    00:00 -2°C° 0 mm 2 mps 596 mmHg 92%
    01:00 0°C° 0 mm 1 mps 596 mmHg 91%
    02:00 -1°C° 0 mm 1 mps 595 mmHg 90%
    03:00 -4°C° 0 mm 2 mps 595 mmHg 89%
    04:00 -4°C° 0 mm 2 mps 595 mmHg 88%
    05:00 0°C° 0 mm 1 mps 596 mmHg 85%
    06:00 +2°C° 0 mm 1 mps 597 mmHg 81%
    07:00 +4°C° 0 mm 1 mps 598 mmHg 77%
    08:00 +4°C° 0.2 mm 1 mps 598 mmHg 78%
    09:00 +4°C° 0.2 mm 1 mps 598 mmHg 79%
    10:00 +4°C° 0.2 mm 1 mps 598 mmHg 79%
    11:00 +6°C° 0.1 mm 1 mps 598 mmHg 78%
    12:00 +7°C° 0.1 mm 1 mps 599 mmHg 76%
    13:00 +7°C° 0.1 mm 2 mps 600 mmHg 74%
    14:00 +7°C° 0.2 mm 2 mps 600 mmHg 76%
    15:00 +7°C° 0.2 mm 2 mps 600 mmHg 77%
    16:00 +7°C° 0.2 mm 2 mps 599 mmHg 78%
    17:00 +6°C° 0.1 mm 2 mps 599 mmHg 83%
    18:00 +6°C° 0.1 mm 1 mps 599 mmHg 88%
    19:00 +5°C° 0.1 mm 1 mps 598 mmHg 92%
    20:00 +5°C° 0.1 mm 1 mps 598 mmHg 92%
    21:00 +4°C° 0.1 mm 1 mps 598 mmHg 92%
    22:00 +4°C° 0.1 mm 1 mps 598 mmHg 92%
    23:00 +4°C° 0.1 mm 1 mps 598 mmHg 91%

    31 May, Friday

    Time Temperature Precipitation Wind Pressure Humidity
    00:00 +4°C° 0.1 mm 1 mps 598 mmHg 90%
    01:00 +4°C° 0.1 mm 1 mps 598 mmHg 89%
    02:00 +4°C° 0.1 mm 1 mps 598 mmHg 89%
    03:00 +4°C° 0.1 mm 1 mps 597 mmHg 90%
    04:00 +4°C° 0.1 mm 1 mps 597 mmHg 90%
    05:00 +5°C° 0.1 mm 1 mps 598 mmHg 88%
    06:00 +6°C° 0.1 mm 1 mps 598 mmHg 86%
    07:00 +6°C° 0.1 mm 1 mps 598 mmHg 84%
    08:00 +6°C° 1.3 mm 1 mps 598 mmHg 88%
    09:00 +5°C° 1.3 mm 1 mps 598 mmHg 92%
    10:00 +4°C° 1.3 mm 2 mps 598 mmHg 96%
    11:00 +4°C° 1 mm 2 mps 598 mmHg 95%
    12:00 +4°C° 1 mm 2 mps 598 mmHg 94%
    13:00 +4°C° 1 mm 2 mps 599 mmHg 93%
    14:00 +3°C° 0.7 mm 2 mps 599 mmHg 94%
    15:00 +2°C° 0.7 mm 3 mps 599 mmHg 95%
    16:00 +2°C° 0.7 mm 3 mps 598 mmHg 96%
    17:00 +1°C° 0.3 mm 3 mps 599 mmHg 96%
    18:00 +2°C° 0.3 mm 2 mps 599 mmHg 96%
    19:00 +2°C° 0.3 mm 2 mps 599 mmHg 96%
    20:00 -1°C° 0 mm 2 mps 599 mmHg 96%
    21:00 -2°C° 0 mm 2 mps 600 mmHg 96%
    22:00 -1°C° 0 mm 1 mps 600 mmHg 97%
    23:00 -2°C° 0 mm 1 mps 600 mmHg 96%
    Show more